Location: Bothwell
(42.3833°S, 147.0000°E)
Time: 05:01:58
(UTC+10:00)

KAITUO 1B - Visible Passes

Search period start: 25 September 2022 00:00
Search period end: 05 October 2022 01:00
Orbit: 474 x 489 km, 97.4° (Epoch: 24 September)

Date Brightness Start Highest point End Pass type
(mag) Time Alt. Az. Time Alt. Az. Time Alt. Az.
25 Sep ? 19:01:18 10° S 19:04:56 78° WSW 19:08:30 10° NNW visible
26 Sep ? 18:36:14 10° SSE 18:39:45 47° E 18:43:12 10° N visible
26 Sep ? 20:11:18 10° SW 20:12:42 12° WSW 20:14:05 10° W visible
27 Sep ? 05:12:49 10° ENE 05:15:36 21° ESE 05:18:23 10° SSE visible
27 Sep ? 19:44:53 10° SSW 19:47:44 22° WSW 19:50:34 10° WNW visible
28 Sep ? 04:49:29 10° E 04:50:37 11° ESE 04:51:46 10° SE visible
28 Sep ? 19:19:12 10° S 19:22:40 44° WSW 19:26:05 10° NW visible
29 Sep ? 18:53:51 10° SSE 18:57:29 83° ENE 19:01:03 10° N visible
30 Sep ? 20:03:13 10° SSW 20:05:14 14° WSW 20:07:14 10° W visible
01 Oct ? 05:05:38 10° ENE 05:08:04 17° ESE 05:10:32 10° SSE visible
01 Oct ? 19:37:03 10° SSW 19:40:10 27° WSW 19:43:14 10° NW visible
02 Oct ? 20:11:25 10° S 20:14:59 57° WSW 20:18:29 10° NNW visible
03 Oct ? 19:46:05 10° SSE 19:49:41 64° ENE 19:53:13 10° N visible
04 Oct ? 20:54:56 10° SSW 20:57:25 18° WSW 20:59:53 10° WNW visible
